Change the Weather History Date:

Wednesday, July 17, 2013

  Actual Average Record
Temperature  
Mean Temperature 81 °F -  
Max Temperature 93 °F 83 °F 100 °F (1988)
Min Temperature 69 °F 58 °F 47 °F (1957)
Cooling Degree Days 16    
Growing Degree Days 31 (Base 50)    
Moisture  
Dew Point 70 °F    
Average Humidity 69    
Maximum Humidity 87    
Minimum Humidity 47    
Precipitation  
Precipitation 0.00 in - - ()
Sea Level Pressure  
Sea Level Pressure 30.22 in    
Wind  
Wind Speed 5 mph (ESE)    
Max Wind Speed 10 mph    
Max Gust Speed -    
Visibility 10 miles    
Events      
Averages and records for this station are not official NWS values.
T = Trace of Precipitation, MM = Missing Value Source: NWS Daily Summary

Daily Weather History Graph

Daily Weather History Graph

Search for Another Location

Airport or City:

Trip Planner

Search our weather history database for the weather conditions in past years. The results will help you decide how hot, cold, wet, or windy it might be!

Date:

Astronomy

Jul. 17, 2013 Rise Set
Actual Time 5:48 AM EDT 8:44 PM EDT
Civil Twilight 5:15 AM EDT 9:18 PM EDT
Nautical Twilight 4:32 AM EDT 10:00 PM EDT
Astronomical Twilight 3:42 AM EDT 10:50 PM EDT
Moon 3:30 PM EDT (7/17) 12:56 AM EDT (7/17)
Length of Visible Light 16h 03m
Length of Day
14h 56m
Waxing Gibbous, 67% of the Moon is Illuminated
Jul 17
Waxing Gibbous
Jul 22
Full
Jul 29
Last Quarter
Aug 6
New
Aug 14
First Quarter

Hourly Weather History & Observations

Time (EDT) Temp. Heat Index Dew Point Humidity Pressure Visibility Wind Dir Wind Speed Gust Speed Precip Events Conditions
12:54 AM 71.1 °F - 66.0 °F 84% 30.28 in 10.0 mi South 3.5 mph - N/A   Clear
1:54 AM 70.0 °F - 66.0 °F 87% 30.27 in 10.0 mi SE 6.9 mph - N/A   Clear
2:54 AM 70.0 °F - 64.9 °F 84% 30.27 in 10.0 mi SE 5.8 mph - N/A   Clear
3:54 AM 69.1 °F - 64.9 °F 87% 30.27 in 10.0 mi SE 4.6 mph - N/A   Partly Cloudy
4:54 AM 70.0 °F - 66.0 °F 87% 30.28 in 10.0 mi SE 6.9 mph - N/A   Mostly Cloudy
5:54 AM 70.0 °F - 64.9 °F 84% 30.28 in 10.0 mi SE 8.1 mph - N/A   Mostly Cloudy
6:54 AM 71.1 °F - 66.0 °F 84% 30.29 in 10.0 mi SE 5.8 mph - N/A   Clear
7:54 AM 73.0 °F - 66.9 °F 81% 30.29 in 10.0 mi SE 6.9 mph - N/A   Clear
8:54 AM 78.1 °F - 70.0 °F 76% 30.28 in 10.0 mi ESE 6.9 mph - N/A   Clear
9:54 AM 82.9 °F 88.0 °F 72.0 °F 69% 30.27 in 10.0 mi ESE 4.6 mph - N/A   Clear
10:54 AM 88.0 °F 95.6 °F 73.0 °F 61% 30.26 in 10.0 mi North 3.5 mph - N/A   Clear
11:54 AM 90.0 °F 97.9 °F 73.0 °F 57% 30.24 in 10.0 mi NNW 3.5 mph - N/A   Clear
12:54 PM 91.9 °F 100.7 °F 73.0 °F 54% 30.23 in 10.0 mi NNW 5.8 mph - N/A   Scattered Clouds
1:54 PM 93.0 °F 101.9 °F 73.0 °F 52% 30.20 in 10.0 mi Variable 6.9 mph - N/A   Clear
2:54 PM 91.9 °F 101.3 °F 73.9 °F 55% 30.17 in 10.0 mi North 6.9 mph - N/A   Mostly Cloudy
3:54 PM 93.0 °F 101.9 °F 73.0 °F 52% 30.16 in 10.0 mi WNW 6.9 mph - N/A   Partly Cloudy
4:54 PM 93.0 °F 101.9 °F 73.0 °F 52% 30.14 in 10.0 mi WNW 9.2 mph - N/A   Clear
5:54 PM 91.9 °F 96.9 °F 69.1 °F 47% 30.14 in 10.0 mi NW 10.4 mph - N/A   Clear
6:54 PM 91.0 °F 95.2 °F 68.0 °F 47% 30.14 in 10.0 mi WNW 4.6 mph - N/A   Clear
7:54 PM 88.0 °F 93.8 °F 71.1 °F 57% 30.14 in 10.0 mi NNW 3.5 mph - N/A   Clear
8:54 PM 82.9 °F 87.5 °F 71.1 °F 67% 30.14 in 10.0 mi Calm Calm - N/A   Clear
9:54 PM 80.1 °F 83.8 °F 72.0 °F 76% 30.15 in 10.0 mi SE 5.8 mph - N/A   Clear
10:54 PM 80.1 °F 83.8 °F 72.0 °F 76% 30.16 in 10.0 mi South 4.6 mph - N/A   Partly Cloudy
11:54 PM 81.0 °F 85.8 °F 73.0 °F 77% 30.16 in 10.0 mi Calm Calm - N/A   Mostly Cloudy